Date,TemperatureHighF,TemperatureAvgF,TemperatureLowF,DewpointHighF,DewpointAvgF,DewpointLowF,HumidityHigh,HumidityAvg,HumidityLow,PressureMaxIn,PressureMinIn,WindSpeedMaxMPH,WindSpeedAvgMPH,GustSpeedMaxMPH,PrecipitationSumIn
2013-1-1,71.3,64.3,55.9,65.9,61.7,53.6,97,91,83,30.00,29.84,8,4,20,0.07
2013-1-2,55.7,50.4,44.3,53.4,46.4,42.5,94,86,78,30.11,29.92,4,2,16,0.10
2013-1-3,49.4,42.1,34.0,42.8,36.2,29.4,96,81,50,30.28,30.10,3,1,17,0.26
2013-1-4,58.9,44.9,34.4,37.8,30.1,23.3,79,59,28,30.34,30.23,6,2,18,0.00
2013-1-5,51.3,47.3,41.5,37.4,34.4,30.0,72,61,54,30.27,30.15,5,2,14,0.00
2013-1-6,51.3,47.7,42.3,47.9,43.2,37.3,95,85,61,30.20,30.09,7,2,16,0.17
2013-1-7,63.7,49.0,37.8,44.6,39.1,32.0,95,73,31,30.23,30.11,7,2,16,0.01
2013-1-8,64.0,56.7,47.7,59.3,51.6,40.0,91,83,73,30.13,30.03,7,4,17,0.00
2013-1-9,68.8,65.7,62.4,67.2,63.4,58.7,98,92,87,30.13,30.04,7,5,19,0.00
2013-1-10,72.7,67.0,61.3,68.3,65.1,60.2,98,94,86,30.12,29.90,7,3,27,0.22
2013-1-11,76.3,69.2,63.9,68.8,66.2,61.6,97,91,76,30.05,29.95,7,3,17,0.00
2013-1-12,76.0,70.5,67.3,70.4,68.2,66.4,98,92,80,30.00,29.87,8,5,22,0.00
2013-1-13,73.9,69.8,58.7,69.7,67.8,57.3,98,94,85,29.94,29.84,9,6,27,0.05
2013-1-14,58.6,52.4,43.3,57.2,51.4,42.5,98,96,94,30.02,29.93,6,3,17,0.06
2013-1-15,61.2,52.8,43.1,60.9,52.3,42.3,99,98,97,29.99,29.85,4,1,13,0.04
2013-1-16,53.8,46.6,39.8,53.5,44.7,37.4,99,93,87,30.00,29.86,4,2,15,0.13
2013-1-17,52.6,43.1,36.6,37.4,34.3,30.7,93,72,49,30.28,30.00,5,2,28,0.00
2013-1-18,59.8,45.0,35.8,42.3,36.6,33.4,95,75,40,30.43,30.29,7,2,18,0.00
2013-1-19,67.4,49.3,36.5,48.6,41.6,35.2,96,77,45,30.30,30.16,4,1,11,0.00
2013-1-20,66.0,50.5,37.3,50.8,45.0,36.5,98,83,49,30.18,30.04,4,1,11,0.00
2013-1-21,67.1,52.9,42.1,45.9,43.3,41.3,98,74,41,30.13,30.04,3,0,16,0.01
2013-1-22,60.2,48.0,40.2,42.2,35.2,27.5,93,64,35,30.27,30.12,7,2,17,0.00
2013-1-23,63.4,51.9,36.8,51.2,44.8,35.6,96,78,56,30.31,30.21,6,2,14,0.00
2013-1-24,66.3,57.5,43.9,56.4,52.4,42.8,98,84,67,30.26,30.14,6,2,15,0.01
2013-1-25,69.9,61.3,49.8,57.9,55.4,48.4,96,82,62,30.19,30.06,9,3,22,0.00
2013-1-26,70.3,61.9,52.3,62.4,58.2,51.5,98,88,72,30.17,30.09,6,1,12,0.01
2013-1-27,72.5,61.4,52.0,62.3,57.9,51.5,98,89,64,30.21,30.14,5,1,14,0.01
2013-1-28,75.3,65.4,54.4,65.9,61.6,54.1,99,88,64,30.18,30.06,7,3,17,0.01
2013-1-29,73.7,69.4,66.4,69.2,67.6,65.2,98,94,84,30.04,29.78,9,5,23,0.03
2013-1-30,70.8,60.8,44.2,69.3,54.5,30.8,98,81,49,30.06,29.62,13,5,28,0.74
2013-1-31,61.5,49.0,36.9,40.9,32.2,23.2,81,56,24,30.24,30.06,4,1,18,0.00